SCP
0 0 0 0 0 0 0 0 0 0 0 0 0 0 0 0 0 0 0 0 0 0 0 0 0 0 0 0 0 0 0 0 0 0 0 0 0 0 0 0 0 0 0 0
0 0 0 0 0 0 0 0 0 0 0 0 0 0 0 0 0 0 0 0 0 0 0 0 0 0 0 0 0 0 0 0 0 0 0 0 0 0 0 0 0 0 0 0
0 0 0 0 0 0 0 0 0 0 0 0 0 0 0 0 0 0 0 0 0 0 0 0 0 0 0 0 0 0 0 0 0 0 0 0 0 0 0 0 0 0 0 0
0 0 0 0 0 0 0 0 0 0 0 0 0 0 0 0 0 0 0 0 0 0 0 0 0 0 0 0 0 0 0 0 0 0 0 0 0 0 0 0 0 0 0 0
0 0 0 0 0 0 0 0 0 0 0 0 0 0 0 0 0 0 0 0 0 0 0 0 0 0 0 0 0 0 0 0 0 0 0 0 0 0 0 0 0 0 0 0
0 0 0 0 0 0 0 0 0 0 0 0 0 0 0 0 0 0 0 0 0 0 0 0 0 0 0 0 0 0 0 0 0 0 0 0 0 0 0 0 0 0 0 0
0 0 0 0 0 0 0 0 0 0 0 0 0 0 0 0 0 0 0 0 0 0 0 0 0 0 0 0 0 0 0 0 0 0 0 0 0 0 0 0 0 0 0 0
0 0 0 0 0 0 0 0 0 0 0 0 0 0 0 0 0 0 0 0 0 0 0 0 0 0 0 0 0 0 0 0 0 0 0 0 0 0 0 0 0 0 0 0
0 0 0 0 0 0 0 0 0 0 0 0 0 0 0 0 0 0 0 0 0 0 0 0 0 0 0 0 0 0 0 0 0 0 0 0 0 0 0 0 0 0 0 0
0 0 0 0 0 0 0 0 0 0 0 0 0 0 0 0 0 0 0 0 0 0 0 0 0 0 0 0 0 0 0 0 0 0 0 0 0 0 0 0 0 0 0 0
0 0 0 0 0 0 0 0 0 0 0 0 0 0 0 0 0 0 0 0 0 0 0 0 0 0 0 0 0 0 0 0 0 0 0 0 0 0 0 0 0 0 0 0
0 0 0 0 0 0 0 0 0 0 0 0 0 0 0 0 0 0 0 0 0 0 0 0 0 0 0 0 0 0 0 0 0 0 0 0 0 0 0 0 0 0 0 0
0 0 0 0 0 0 0 0 0 0 0 0 0 0 0 0 0 0 0 0 0 0 0 0 0 0 0 0 0 0 0 0 0 0 0 0 0 0 0 0 0 0 0 0
0 0 0 0 0 0 0 0 0 0 0 0 0 0 0 0 0 0 0 0 0 0 0 0 0 0 0 0 0 0 0 0 0 0 0 0 0 0 0 0 0 0 0 0
0 0 0 0 0 0 0 0 0 0 0 0 0 0 0 0 0 0 0 0 0 0 0 0 0 0 0 0 0 0 0 0 0 0 0 0 0 0 0 0 0 0 0 0
0 0 0 0 0 0 0 0 0 0 0 0 0 0 0 0 0 0 0 0 0 0 0 0 0 0 0 0 0 0 0 0 0 0 0 0 0 0 0 0 0 0 0 0
0 0 0 0 0 0 0 0 0 0 0 0 0 0 0 0 0 0 0 0 0 0 0 0 0 0 0 0 0 0 0 0 0 0 0 0 0 0 0 0 0 0 0 0
0 0 0 0 0 0 0 0 0 0 0 0 0 0 0 0 0 0 0 0 0 0 0 0 0 0 0 0 0 0 0 0 0 0 0 0 0 0 0 0 0 0 0 0
0 0 0 0 0 0 0 0 0 0 0 0 0 0 0 0 0 0 0 0 0 0 0 0 0 0 0 0 0 0 0 0 0 0 0 0 0 0 0 0 0 0 0 0
0 0 0 0 0 0 0 0 0 0 0 0 0 0 0 0 0 0 0 0 0 0 0 0 0 0 0 0 0 0 0 0 0 0 0 0 0 0 0 0 0 0 0 0
0 0 0 0 0 0 0 0 0 0 0 0 0 0 0 0 0 0 0 0 0 0 0 0 0 0 0 0 0 0 0 0 0 0 0 0 0 0 0 0 0 0 0 0
0 0 0 0 0 0 0 0 0 0 0 0 0 0 0 0 0 0 0 0 0 0 0 0 0 0 0 0 0 0 0 0 0 0 0 0 0 0 0 0 0 0 0 0
0 0 0 0 0 0 0 0 0 0 0 0 0 0 0 0 0 0 0 0 0 0 0 0 0 0 0 0 0 0 0 0 0 0 0 0 0 0 0 0 0 0 0 0
0 0 0 0 0 0 0 0 0 0 0 0 0 0 0 0 0 0 0 0 0 0 0 0 0 0 0 0 0 0 0 0 0 0 0 0 0 0 0 0 0 0 0 0
0 0 0 0 0 0 0 0 0 0 0 0 0 0 0 0 0 0 0 0 0 0 0 0 0 0 0 0 0 0 0 0 0 0 0 0 0 0 0 0 0 0 0 0
0 0 0 0 0 0 0 0 0 0 0 0 0 0 0 0 0 0 0 0 0 0 0 0 0 0 0 0 0 0 0 0 0 0 0 0 0 0 0 0 0 0 0 0
0 0 0 0 0 0 0 0 0 0 0 0 0 0 0 0 0 0 0 0 0 0 0 0 0 0 0 0 0 0 0 0 0 0 0 0 0 0 0 0 0 0 0 0
Wind_Speed
4 4 4 6 8 10 13 12 10 12 16 23 21 19 15 11 12 12 12 11 9 7 6 4 3 3 2 3 3 5 7 8 9 10 12 13 14 13 13 13 13 13 13 11
4 5 6 7 11 12 13 15 18 21 24 20 14 10 10 9 11 12 13 12 9 7 4 2 2 3 5 7 7 9 10 11 12 13 14 15 15 15 15 14 14 13 12 11
4 4 4 8 10 12 8 9 11 14 13 10 12 12 7 7 10 12 12 12 9 6 4 4 5 7 8 9 11 12 13 13 13 15 16 16 16 16 15 13 12 12 10 9
3 3 6 6 2 7 8 9 10 11 12 12 11 7 2 5 8 9 10 10 9 7 8 8 9 10 11 12 13 14 14 13 14 15 16 16 16 15 13 10 10 9 8 7
2 4 7 7 3 4 5 7 7 9 11 9 7 3 0 5 6 7 7 7 7 7 8 9 10 11 13 13 13 14 13 13 13 14 15 15 14 12 10 9 8 7 6 6
3 4 5 5 2 3 2 6 6 6 8 6 4 3 3 5 6 7 7 6 7 8 9 10 10 11 13 12 12 13 12 12 11 12 13 13 12 10 8 7 7 6 5 4
5 5 8 7 2 4 2 6 3 4 6 4 2 2 1 3 4 5 6 6 7 8 8 8 8 10 12 11 11 10 10 11 11 11 11 11 10 8 7 6 6 5 4 3
5 6 9 4 4 4 7 5 4 4 3 3 4 4 3 3 4 4 5 6 6 7 7 7 7 9 11 10 8 9 10 11 11 10 9 8 8 7 6 6 6 4 3 3
8 9 6 3 5 4 2 4 4 3 2 5 5 5 4 4 4 4 5 5 6 7 7 7 7 8 10 8 8 10 11 10 9 9 7 6 7 7 5 5 4 3 3 2
5 8 7 7 5 3 3 3 4 3 3 6 6 6 6 5 5 5 6 6 6 7 8 7 8 8 9 8 8 10 10 9 8 8 7 6 5 5 4 4 3 3 2 1
5 7 6 4 4 4 3 2 2 1 3 5 8 7 6 6 6 6 6 6 6 7 8 8 8 8 7 7 8 9 9 7 7 6 6 5 4 3 4 2 3 3 2 1
7 7 5 6 4 3 4 3 3 2 3 4 6 8 7 6 6 7 7 7 7 7 8 8 8 7 6 6 7 9 8 6 5 4 4 4 4 3 5 3 4 4 3 3
6 6 5 5 3 3 3 3 3 4 5 5 6 7 7 7 6 8 8 8 9 8 8 8 7 7 6 6 6 7 7 6 4 4 4 3 3 3 2 4 5 5 4 5
6 4 4 4 4 4 4 4 4 4 4 6 6 7 8 7 8 9 8 8 8 8 8 8 7 6 5 6 7 7 6 6 5 3 3 3 3 2 2 1 1 2 4 7
8 6 5 2 3 4 4 5 5 5 5 5 6 7 8 9 8 8 8 9 9 8 7 7 7 5 5 6 7 7 6 4 4 3 3 3 2 2 2 1 1 1 2 4
11 7 2 2 4 4 5 6 6 6 6 6 7 7 8 8 8 8 8 8 10 9 7 7 7 5 5 7 7 5 4 8 6 3 3 3 2 2 1 1 1 1 2 3
7 6 4 4 5 6 7 7 7 7 7 8 8 9 10 10 10 9 7 6 6 6 6 7 7 6 6 6 6 4 4 5 7 4 3 2 2 1 0 0 1 2 2 5
8 9 9 8 7 7 8 7 8 9 8 8 10 11 12 12 12 10 9 9 8 6 5 5 6 7 6 6 5 4 4 3 3 3 2 1 1 1 1 1 2 2 3 4
9 9 8 8 7 7 7 8 9 9 9 11 12 11 9 8 9 10 10 11 11 9 6 6 11 7 6 6 6 4 4 4 3 2 1 2 2 1 1 2 2 3 3 3
10 9 8 6 3 3 5 7 9 10 10 12 11 10 10 9 10 10 9 7 5 5 7 8 7 6 5 6 7 4 4 4 3 2 1 1 1 1 2 2 3 3 3 3
10 10 8 6 3 0 3 7 9 10 11 11 12 11 10 10 10 10 9 6 4 7 8 12 6 5 4 6 7 4 3 3 2 1 0 0 1 2 2 3 3 4 4 4
9 8 8 6 3 2 2 4 7 9 10 10 9 9 11 11 9 7 5 5 7 13 8 5 5 7 8 8 4 3 3 2 2 1 0 1 2 2 3 3 3 4 4 5
8 7 7 5 3 1 2 3 5 8 9 10 11 12 12 10 9 8 6 5 7 13 8 5 8 12 11 5 3 3 3 2 1 1 1 2 2 3 3 4 4 4 4 5
8 8 6 5 2 1 1 1 3 4 6 7 7 9 9 8 5 3 4 13 15 13 7 9 14 12 10 4 3 3 2 2 1 2 2 2 2 3 3 4 4 5 5 6
7 6 5 4 2 1 1 2 3 5 6 5 6 7 6 5 5 6 7 10 15 13 7 10 14 11 6 3 3 3 2 2 3 2 2 3 3 4 4 4 5 5 5 6
5 5 5 4 3 2 2 2 3 4 5 6 5 5 5 5 7 8 7 8 11 12 7 5 6 7 4 3 3 2 2 2 2 2 2 3 4 4 5 5 6 6 6 6
5 4 4 3 2 2 2 3 4 5 5 6 6 6 6 7 8 8 9 8 8 7 6 5 4 4 3 3 2 2 2 2 2 3 3 4 4 4 5 6 6 6 6 7
Wind_Direction
247 243 212 215 216 205 209 219 239 259 271 284 294 300 303 310 315 315 316 316 309 294 283 287 299 320 1 20 54 98 111 115 116 115 115 117 117 117 117 116 115 112 108 105
293 267 233 241 236 226 231 236 246 264 276 278 283 295 307 323 329 328 328 324 319 315 311 322 22 49 54 53 59 78 90 96 101 105 106 105 105 104 103 102 103 104 105 104
275 299 318 263 230 206 209 217 224 250 259 285 304 314 325 337 335 331 331 334 340 349 15 46 60 71 71 70 73 78 83 89 96 101 100 100 101 99 98 98 99 100 102 103
281 318 254 248 235 186 212 242 233 247 267 285 296 307 41 4 338 339 347 359 12 31 50 58 68 75 80 81 83 85 88 90 93 97 98 98 97 97 97 98 100 100 103 110
251 275 277 284 238 193 217 272 242 244 268 285 306 296 125 24 6 359 4 20 33 46 61 66 72 81 85 85 88 90 92 94 97 101 103 103 103 102 103 105 104 108 119 133
224 263 260 261 254 148 133 278 253 240 268 288 323 326 325 24 21 20 24 35 49 57 66 72 76 86 89 90 92 94 97 98 99 102 105 106 107 107 106 110 116 123 127 144
224 248 268 258 220 125 225 264 276 247 260 262 227 212 84 60 48 43 41 49 59 66 70 75 83 91 94 94 95 99 99 97 95 97 101 105 104 107 115 118 118 115 112 106
195 218 254 251 148 197 235 270 284 269 247 198 156 131 117 97 78 71 62 62 70 75 73 71 81 92 93 91 95 98 97 96 96 97 101 106 109 109 109 111 107 103 102 88
199 220 240 240 229 251 258 275 279 269 229 160 152 157 142 122 104 94 89 82 80 84 80 72 76 92 98 98 103 102 100 100 99 95 93 100 106 105 95 95 103 107 113 109
250 262 262 264 251 244 239 253 274 266 201 168 162 155 148 135 123 113 105 99 99 97 92 86 87 93 101 108 107 105 102 98 96 95 89 80 81 92 102 110 114 117 117 106
255 277 294 280 238 235 238 242 266 271 172 167 153 153 151 142 133 125 117 110 105 104 103 100 99 99 99 102 105 102 97 94 89 87 90 85 80 91 110 126 143 138 145 159
236 240 237 259 245 214 219 224 205 168 136 144 152 149 142 138 132 127 122 118 114 111 111 108 105 99 92 97 110 113 106 95 91 92 88 88 88 68 69 85 90 110 166 199
253 266 243 255 242 205 203 197 179 169 159 147 142 141 137 134 132 129 127 129 129 125 120 115 110 102 97 98 100 104 109 106 98 95 95 93 91 94 71 37 46 41 21 352
278 277 258 237 226 196 167 141 128 120 128 134 133 133 132 129 133 134 135 133 128 123 120 117 110 102 100 101 100 99 102 111 110 104 104 104 106 109 112 100 30 348 354 353
331 304 262 234 145 141 138 134 134 138 135 130 134 140 141 141 141 136 132 130 125 121 119 117 113 108 105 107 108 109 108 107 106 105 103 102 102 100 94 88 68 328 319 331
317 313 283 196 185 176 168 168 170 170 159 150 146 144 139 133 130 129 132 138 139 138 135 128 123 123 117 114 112 109 114 125 120 113 105 98 93 93 88 68 8 331 317 309
311 302 289 265 232 214 203 195 184 175 165 159 152 142 136 134 132 133 130 123 123 126 129 130 129 126 122 122 119 117 110 118 117 108 103 103 99 89 68 349 321 311 301 309
281 275 272 265 252 230 214 195 181 174 167 157 148 149 152 155 155 149 139 128 118 109 113 125 129 126 125 126 124 123 120 118 118 116 112 111 106 73 16 334 319 313 303 311
312 300 287 270 248 222 205 190 179 168 156 153 158 162 161 155 149 147 145 144 146 146 154 152 142 131 130 137 130 120 121 118 111 103 86 63 68 20 343 319 308 303 305 309
329 327 322 311 285 215 190 172 161 157 157 157 158 157 157 154 152 152 152 155 163 155 151 147 135 130 131 137 130 119 122 121 121 116 100 56 359 326 318 312 309 304 305 306
335 335 337 336 334 18 151 152 155 158 161 164 167 168 163 156 156 156 156 156 159 146 149 149 141 139 137 138 128 121 121 123 125 128 126 313 310 305 303 303 306 310 309 306
335 338 343 350 11 46 104 140 153 157 160 163 160 154 155 158 160 159 159 157 158 159 149 144 145 154 151 137 123 127 128 133 141 159 231 281 289 293 295 299 299 299 295 292
337 338 342 348 359 37 101 140 158 164 166 167 167 169 170 168 168 165 165 157 156 160 150 156 165 158 147 133 132 134 141 153 174 213 255 275 282 288 291 292 287 286 287 287
337 338 336 338 354 63 140 148 150 153 154 156 163 166 162 157 155 149 140 159 165 158 155 167 163 156 146 136 139 146 162 185 216 246 266 278 284 286 282 281 283 282 281 283
326 324 327 333 330 300 209 137 127 135 141 146 152 155 156 153 153 153 150 157 162 154 155 166 161 153 144 143 153 166 187 220 233 240 250 268 275 276 275 274 274 278 280 279
318 317 312 301 284 255 202 171 167 163 156 154 156 152 142 133 137 145 148 150 153 154 149 137 141 147 146 154 165 184 209 249 293 292 269 272 272 274 274 276 278 276 275 276
310 308 305 306 297 252 214 196 184 181 176 170 163 161 154 149 150 150 148 146 146 145 141 137 138 145 153 163 182 205 226 243 259 267 270 268 268 268 272 274 275 276 277 277